Location: Newark
(37.0133°S, 81.3511°E)
Time: 08:29:48
(UTC+00:00)

Hubble Space Telescope - Visible Passes

Search period start: 18 January 2020 00:00
Search period end: 28 January 2020 00:00
Orbit: 536 x 540 km, 28.5° (Epoch: 17 January)

Date Brightness Start Highest point End Pass type
(mag) Time Alt. Az. Time Alt. Az. Time Alt. Az.
18 Jan 2.8 21:41:18 16° NNE 21:41:18 16° NNE 21:42:33 10° NE visible
24 Jan 2.9 15:30:30 10° NNW 15:31:23 13° NNW 15:31:23 13° NNW visible
25 Jan 2.4 15:19:31 10° NNW 15:21:52 18° N 15:21:52 18° N visible
26 Jan 2.2 15:08:37 10° NW 15:11:47 21° N 15:12:10 21° NNE visible
27 Jan 2.1 14:57:47 10° NW 15:01:05 23° N 15:02:19 20° NNE visible
